Temperature
9 9 9 9 9 9 9 9 9 9 9 9 9 9 9 9 9 9 9 9 9 9 10 10 10 10 10 10 10 10 10 10 10 11 11 10 10 10 10 10 10 10 10
9 9 9 9 8 8 9 8 8 8 8 8 9 9 9 9 9 9 9 9 9 9 9 9 9 9 9 9 9 10 10 10 10 10 10 10 10 10 10 10 10 10 10
8 8 8 8 8 8 8 8 8 8 8 8 8 8 8 8 8 8 8 8 8 9 9 9 9 9 9 9 9 9 9 9 9 9 9 9 9 9 9 9 9 9 9
8 8 8 7 7 7 7 7 7 7 7 7 7 7 8 8 8 8 8 8 8 8 8 8 8 8 8 8 8 8 8 8 8 8 8 9 9 9 9 9 9 9 9
7 7 7 7 7 7 7 7 6 7 7 7 7 7 7 7 7 7 7 7 7 8 8 8 8 8 8 8 8 8 8 8 8 8 8 8 8 8 8 8 8 8 8
6 6 6 6 6 6 6 6 6 6 6 6 6 6 6 6 6 6 7 7 7 7 7 7 7 7 7 7 7 7 7 7 7 7 7 7 7 7 7 7 7 8 8
6 6 6 5 5 5 6 5 5 5 5 5 5 5 5 6 6 6 6 6 6 6 7 7 7 7 7 7 7 7 7 7 7 7 7 7 7 7 7 7 7 7 7
5 5 5 5 5 5 5 5 5 5 5 4 4 4 4 4 5 5 5 5 6 6 6 6 6 6 6 6 6 6 6 6 6 6 6 6 6 6 6 6 6 6 6
4 4 4 4 4 4 4 4 4 4 4 4 4 4 4 4 4 4 4 5 5 5 5 5 5 5 5 5 5 6 6 6 6 6 6 6 6 6 6 6 6 6 6
4 4 4 4 4 4 3 3 3 3 3 3 3 3 4 4 3 3 3 4 4 4 4 4 4 5 5 5 5 5 5 5 5 5 5 5 5 5 5 5 5 5 5
3 3 3 3 3 3 3 3 3 3 3 3 3 3 3 3 3 3 2 3 3 3 3 4 4 4 4 4 4 5 5 5 5 5 5 5 5 5 5 5 5 5 5
2 2 2 2 2 2 2 2 2 2 2 2 2 2 2 2 2 2 2 2 2 2 3 3 3 3 3 3 4 4 4 4 4 4 4 4 4 4 4 4 4 4 4
1 1 1 1 1 1 1 1 1 1 1 1 2 2 2 2 2 2 2 2 1 2 2 2 2 2 3 3 3 3 3 4 4 3 3 3 4 4 4 4 4 4 4
1 1 0 0 1 1 1 1 1 1 1 1 1 1 1 1 1 1 1 1 1 1 1 2 2 2 2 2 2 2 3 3 3 3 3 3 3 3 3 3 3 3 3
-0 -0 -0 -0 -0 -0 -0 -0 -0 -0 -0 -0 0 0 0 1 1 1 1 1 1 0 0 1 1 1 2 2 2 2 2 2 2 2 2 2 2 2 2 2 2 3 3
-1 -1 -1 -1 -1 -1 -1 -1 -1 -1 -1 -1 -1 -0 -0 -0 -0 -0 -0 -0 -0 0 0 1 1 1 1 1 1 1 1 1 2 2 2 2 2 2 2 2 2 2 2
-2 -2 -1 -2 -2 -2 -2 -2 -2 -2 -1 -1 -1 -1 -1 -1 -1 -1 -1 -1 -1 -1 -0 -0 0 1 1 1 1 1 1 1 1 1 1 1 1 1 1 1 1 1 1
-2 -2 -2 -2 -2 -2 -2 -2 -2 -2 -2 -2 -2 -2 -2 -2 -2 -1 -1 -1 -1 -1 -1 -1 -0 -0 -0 0 0 0 0 0 0 0 0 0 0 1 1 1 1 1 1
-3 -3 -3 -3 -3 -3 -3 -3 -3 -3 -3 -2 -2 -2 -2 -2 -2 -2 -2 -2 -2 -2 -2 -2 -1 -1 -1 -1 -1 -1 -1 -1 -1 -1 -0 -0 -0 -0 0 0 0 0 0
-4 -4 -4 -4 -4 -4 -4 -4 -4 -4 -3 -3 -3 -3 -3 -3 -3 -3 -2 -2 -3 -3 -3 -3 -2 -2 -2 -2 -2 -1 -1 -1 -1 -1 -1 -1 -1 -1 -0 -0 -0 -0 -0
-5 -4 -4 -4 -5 -5 -5 -5 -5 -5 -4 -4 -4 -4 -3 -3 -3 -3 -3 -3 -3 -3 -3 -3 -3 -3 -2 -2 -2 -2 -2 -2 -2 -2 -2 -1 -1 -1 -1 -1 -1 -1 -1
-5 -5 -5 -5 -5 -5 -5 -5 -6 -5 -5 -5 -5 -5 -4 -4 -4 -4 -4 -4 -4 -4 -4 -4 -4 -3 -3 -3 -3 -3 -3 -3 -3 -3 -2 -2 -2 -2 -2 -2 -1 -1 -1
-6 -6 -6 -6 -6 -6 -6 -6 -6 -6 -6 -6 -6 -5 -5 -5 -5 -4 -4 -4 -4 -4 -4 -4 -4 -4 -3 -3 -3 -3 -3 -3 -3 -3 -3 -3 -3 -3 -2 -2 -2 -2 -2
-7 -7 -7 -7 -7 -7 -7 -7 -7 -7 -7 -6 -6 -6 -6 -5 -5 -5 -5 -5 -5 -5 -5 -5 -5 -4 -4 -4 -4 -4 -4 -4 -4 -4 -4 -4 -3 -3 -3 -3 -3 -3 -3
-8 -7 -7 -7 -7 -7 -7 -7 -7 -7 -7 -7 -7 -6 -6 -6 -5 -5 -6 -5 -5 -5 -5 -5 -5 -5 -5 -5 -4 -4 -4 -4 -4 -4 -4 -4 -4 -4 -4 -4 -3 -3 -3
-8 -8 -8 -8 -8 -8 -8 -8 -8 -8 -8 -7 -7 -7 -6 -6 -6 -6 -6 -6 -6 -6 -6 -6 -6 -5 -5 -5 -5 -5 -5 -5 -5 -5 -5 -5 -5 -5 -5 -4 -4 -4 -4
Wind_Speed
2 3 3 3 4 4 4 4 4 5 5 5 5 5 5 5 5 6 6 9 9 8 8 7 7 8 8 9 9 9 9 9 10 10 10 10 10 10 10 10 9 9 9
2 2 3 3 3 3 3 4 4 4 4 4 4 5 4 4 5 5 5 7 8 7 7 7 7 7 7 7 8 8 8 8 8 8 8 8 9 9 9 9 9 8 8
2 2 2 2 2 3 3 4 4 4 3 3 3 4 4 4 3 4 4 4 5 6 6 6 6 7 6 6 6 7 7 7 6 6 7 7 7 8 8 8 8 8 8
2 2 2 2 3 3 3 3 3 3 3 2 2 2 3 3 3 3 3 3 3 3 5 5 5 5 5 5 5 6 5 6 5 5 5 5 6 6 6 6 7 7 7
2 2 2 2 3 3 2 2 2 2 2 2 2 2 2 2 2 2 2 3 3 3 3 4 3 3 3 4 4 5 4 4 4 4 4 4 5 5 5 5 5 6 6
2 2 2 3 3 3 2 2 2 2 2 2 2 2 2 1 1 1 1 2 2 2 2 2 2 2 3 3 3 4 4 4 3 3 3 3 4 4 5 5 5 5 4
1 2 1 2 2 3 3 3 3 3 2 2 1 1 1 1 0 1 1 1 2 2 2 2 2 1 2 2 2 2 3 3 3 3 3 3 3 3 4 5 5 4 4
1 1 2 1 2 2 3 4 4 2 2 2 2 1 1 1 1 1 0 0 1 1 1 1 2 1 1 1 1 2 2 2 3 3 2 3 3 3 4 4 4 4 4
1 1 2 2 2 2 4 4 5 4 4 3 3 2 2 3 1 2 2 2 2 2 2 1 2 2 2 2 2 2 2 3 3 3 3 3 3 3 4 4 4 5 4
0 1 2 2 2 2 3 4 4 4 4 4 3 2 2 2 2 2 2 3 3 3 3 3 3 3 4 4 3 3 3 4 4 4 3 4 4 4 4 5 5 5 4
1 1 1 2 2 2 3 4 4 4 4 4 4 2 2 2 3 3 4 4 4 4 4 4 4 4 5 5 5 4 4 5 5 5 5 5 5 4 4 4 4 5 5
1 2 2 2 3 3 3 4 4 5 5 5 4 4 4 3 3 3 4 4 4 4 4 5 5 5 5 6 6 6 6 6 7 7 7 6 6 6 6 5 5 5 5
2 2 2 3 3 3 4 4 5 5 6 6 6 5 5 4 4 4 4 4 4 4 4 5 5 6 6 6 6 7 7 7 8 8 8 7 6 6 6 6 6 6 6
3 3 4 4 4 4 4 4 4 5 5 6 6 6 4 4 4 4 4 4 4 4 5 5 4 6 6 6 7 8 8 9 9 8 8 8 7 7 7 7 8 7 7
3 3 4 4 4 4 4 5 4 5 5 5 5 6 5 4 4 4 4 5 5 6 6 5 4 5 6 7 7 8 9 9 10 10 9 9 9 9 9 8 8 8 8
3 3 4 4 4 4 4 5 5 5 5 5 4 5 6 5 4 5 5 5 6 6 6 5 5 5 6 6 8 9 9 10 11 11 11 10 10 10 10 10 9 9 9
3 4 4 4 4 4 5 5 5 5 6 6 6 6 7 6 5 5 5 5 6 6 7 6 4 5 6 6 7 8 9 9 9 11 11 11 10 11 10 10 9 9 10
4 4 4 5 5 5 5 6 6 6 6 7 7 7 7 6 7 6 5 6 6 6 6 7 6 6 7 7 7 8 8 9 9 11 11 12 12 12 12 11 11 11 11
3 4 4 5 5 5 5 6 6 6 6 7 7 8 7 7 7 6 7 6 6 6 6 6 7 6 6 6 7 7 8 7 9 10 12 13 13 13 13 12 12 12 12
3 4 4 5 5 5 5 6 6 6 7 7 7 8 8 8 8 8 7 7 6 6 6 6 7 6 6 6 6 7 7 7 7 8 10 11 12 13 13 13 13 13 13
3 4 4 4 4 5 5 6 6 7 7 8 8 8 9 10 10 9 8 7 7 7 7 7 7 7 7 6 7 6 7 6 7 7 6 7 8 9 10 12 13 13 13
3 3 3 4 4 4 7 8 7 7 7 8 8 8 8 9 10 12 12 12 11 10 9 8 8 9 9 9 8 7 7 6 6 5 6 7 7 8 9 9 11 13 13
3 3 3 4 5 6 8 9 9 7 7 8 8 8 7 8 9 9 11 12 13 14 14 11 11 11 10 9 9 9 9 8 7 5 5 7 6 8 8 10 12 13 13
3 3 4 4 5 6 8 8 9 7 7 8 9 9 9 9 9 9 9 9 10 11 12 11 11 11 10 10 9 9 9 8 6 6 6 6 6 6 7 9 12 14 13
3 4 4 4 5 7 8 8 7 6 6 8 8 9 10 9 11 12 10 10 10 10 11 13 14 14 14 13 11 7 7 7 7 6 6 6 5 5 6 7 10 12 13
4 4 4 5 5 6 7 8 7 5 6 7 7 8 11 11 12 12 10 10 11 10 9 9 10 11 12 13 14 12 9 9 7 6 6 6 5 3 4 5 6 8 9
Wind_Direction
96 91 85 86 85 86 90 85 80 82 77 73 75 76 74 76 81 84 80 78 81 84 91 99 105 106 107 105 107 108 104 102 101 97 99 98 96 92 91 94 101 102 98
101 106 92 85 85 90 95 99 93 88 81 75 73 71 72 74 78 85 88 81 78 83 87 93 98 97 101 105 104 107 110 111 106 103 101 104 103 99 95 92 92 95 100
97 116 109 93 89 97 104 106 101 93 88 78 71 67 68 71 78 81 83 86 88 83 84 88 96 101 104 102 105 109 114 114 112 111 107 109 108 103 101 98 94 93 94
97 116 115 106 104 109 108 113 114 105 91 75 57 55 67 71 71 80 86 87 87 89 87 84 92 100 108 110 111 113 115 120 117 116 114 116 121 116 109 108 102 98 96
105 110 115 120 126 116 111 118 125 116 109 80 53 30 42 58 63 74 84 89 90 90 95 90 95 97 110 113 119 122 116 118 117 119 121 125 136 134 126 124 115 108 105
100 106 112 136 140 131 131 135 136 121 124 109 73 37 19 35 63 74 83 97 100 101 109 109 117 104 111 118 122 136 136 136 140 142 148 152 153 157 148 141 133 125 121
97 110 121 148 156 159 154 152 138 135 133 134 115 66 23 23 43 71 83 111 111 119 125 127 132 137 135 125 126 145 151 155 157 153 153 167 175 180 173 161 155 150 139
110 117 136 153 173 168 164 163 158 164 176 182 179 185 214 224 221 225 185 163 180 153 137 153 156 161 181 178 153 177 190 191 181 176 178 184 197 198 190 178 174 171 168
103 155 162 164 179 179 183 184 185 183 191 202 207 215 213 221 247 217 220 214 214 222 211 199 198 197 206 208 202 196 199 204 201 200 201 209 210 212 202 192 190 191 192
188 179 177 181 189 198 195 197 201 208 205 203 212 246 258 231 220 219 219 221 225 229 226 219 217 213 216 214 208 208 211 216 215 213 216 222 222 218 210 199 204 203 201
215 197 200 200 202 209 209 209 209 212 216 219 219 226 234 237 238 231 237 236 233 230 230 228 228 224 221 221 217 215 221 227 228 225 225 226 234 237 235 223 223 216 215
224 222 223 221 219 219 216 216 213 216 222 226 231 228 222 217 221 229 238 238 243 243 234 228 227 227 222 222 222 224 225 232 233 232 230 232 235 240 246 243 235 230 232
236 233 241 236 234 232 227 224 220 219 223 226 230 234 232 236 233 236 233 245 258 267 247 234 225 225 223 226 227 225 225 229 234 234 233 236 240 246 249 251 249 243 242
239 244 243 242 243 238 232 226 226 226 225 228 234 237 238 236 230 227 233 239 254 259 249 244 227 221 224 228 234 229 229 227 231 233 234 238 241 244 247 248 248 250 247
246 242 246 244 241 235 230 228 228 226 226 227 233 235 239 241 236 238 237 232 236 249 248 242 238 222 225 229 234 233 235 231 233 235 239 241 240 240 241 243 244 247 249
239 239 244 245 246 243 235 232 232 231 228 230 233 236 239 240 236 236 235 237 241 248 254 245 246 237 225 229 234 235 239 238 236 235 237 240 240 240 238 238 239 242 245
233 238 244 246 247 247 244 238 238 236 235 235 234 236 241 241 240 236 235 235 236 242 253 262 256 242 232 233 234 232 235 236 236 235 236 236 236 238 238 239 239 240 239
234 235 239 243 246 247 245 240 240 241 241 241 239 239 243 242 244 240 235 235 236 238 247 256 258 248 242 237 237 236 234 234 235 234 237 237 236 235 237 239 238 238 236
243 239 235 239 245 248 249 248 245 246 248 249 246 240 241 240 244 244 238 238 240 240 243 249 251 253 251 240 239 240 238 237 238 236 235 234 233 235 237 238 237 236 233
246 244 242 243 248 250 250 251 250 249 251 252 252 246 243 240 242 244 242 241 240 240 239 241 247 246 245 241 238 237 239 235 238 238 235 235 234 235 236 237 236 235 231
257 254 251 251 250 251 250 251 253 252 252 253 254 252 245 245 245 246 243 240 237 236 237 238 245 244 240 235 236 236 241 241 242 232 235 237 234 235 233 232 231 232 234
281 272 261 257 255 257 261 258 261 257 255 254 254 257 253 250 249 252 250 246 241 237 235 236 243 242 240 239 239 236 237 241 248 221 233 241 236 238 237 233 231 233 237
284 279 276 272 269 270 267 261 261 261 256 253 253 255 256 252 251 253 250 250 249 246 242 240 242 245 245 237 235 236 235 237 247 233 231 244 235 240 238 233 232 234 234
281 282 283 284 284 280 275 268 263 263 259 255 255 253 254 253 249 251 250 251 252 248 244 243 245 250 251 242 236 240 240 245 256 236 224 245 240 245 247 239 231 230 234
286 286 286 287 289 286 280 275 271 269 263 262 259 256 253 254 252 251 249 251 255 256 251 250 252 250 249 244 237 234 232 231 245 241 226 234 242 255 253 245 230 229 234
284 291 292 293 294 292 284 281 276 272 270 270 268 262 255 254 255 251 248 248 251 255 254 252 249 246 243 240 234 229 229 231 235 240 216 216 225 235 251 241 230 227 233
Height
1533 1534 1534 1535 1536 1537 1537 1538 1539 1540 1540 1541 1542 1543 1543 1544 1545 1545 1546 1547 1547 1548 1549 1550 1550 1551 1551 1551 1552 1553 1553 1554 1555 1555 1556 1557 1557 1558 1559 1560 1560 1561 1562
1531 1531 1532 1533 1534 1535 1536 1537 1537 1538 1539 1540 1541 1542 1542 1543 1544 1544 1545 1546 1547 1547 1548 1549 1549 1549 1550 1551 1551 1552 1553 1553 1554 1554 1555 1556 1557 1557 1558 1559 1559 1560 1561
1529 1529 1530 1531 1532 1533 1534 1535 1536 1537 1538 1538 1539 1540 1541 1541 1542 1543 1544 1545 1545 1546 1547 1547 1547 1548 1549 1550 1550 1551 1551 1552 1553 1553 1554 1555 1555 1556 1557 1557 1558 1559 1560
1527 1527 1528 1528 1529 1530 1531 1532 1534 1535 1535 1536 1537 1538 1539 1540 1541 1542 1542 1543 1543 1544 1545 1545 1546 1547 1547 1548 1549 1550 1550 1551 1551 1552 1553 1554 1554 1555 1556 1556 1557 1557 1558
1524 1525 1525 1526 1527 1528 1529 1530 1531 1532 1533 1534 1535 1536 1537 1537 1538 1539 1540 1541 1541 1542 1543 1543 1544 1545 1545 1546 1547 1548 1549 1549 1550 1550 1551 1552 1553 1553 1554 1555 1555 1556 1556
1521 1522 1523 1523 1524 1525 1526 1527 1528 1530 1531 1532 1533 1534 1534 1535 1536 1537 1537 1538 1539 1540 1540 1541 1542 1543 1544 1544 1545 1546 1546 1547 1548 1548 1549 1550 1551 1552 1552 1553 1553 1554 1555
1518 1519 1520 1520 1521 1522 1523 1524 1525 1527 1528 1529 1530 1531 1532 1533 1533 1534 1534 1535 1536 1537 1538 1539 1539 1540 1541 1542 1543 1544 1544 1545 1546 1546 1547 1548 1548 1550 1550 1551 1551 1552 1553
1515 1516 1516 1517 1518 1519 1520 1521 1522 1523 1525 1526 1527 1528 1530 1531 1530 1530 1531 1532 1533 1534 1535 1536 1537 1538 1538 1539 1540 1541 1542 1543 1543 1544 1545 1545 1546 1547 1548 1549 1549 1550 1551
1512 1512 1513 1514 1515 1516 1516 1517 1519 1520 1521 1523 1525 1526 1527 1527 1527 1528 1527 1528 1530 1531 1531 1533 1534 1535 1535 1536 1537 1538 1539 1540 1541 1541 1542 1543 1544 1544 1545 1546 1547 1547 1548
1508 1509 1509 1510 1511 1512 1513 1514 1515 1516 1518 1519 1520 1521 1523 1523 1524 1524 1525 1525 1526 1527 1528 1529 1530 1531 1532 1532 1533 1534 1535 1536 1537 1538 1539 1540 1541 1541 1542 1542 1543 1544 1545
1504 1505 1506 1506 1507 1508 1509 1510 1511 1512 1514 1515 1516 1517 1518 1519 1519 1520 1520 1521 1522 1523 1523 1524 1525 1526 1527 1528 1529 1530 1531 1532 1533 1534 1535 1536 1537 1538 1538 1539 1540 1540 1541
1500 1501 1502 1502 1503 1504 1505 1506 1507 1508 1509 1510 1511 1512 1513 1514 1515 1516 1516 1516 1517 1518 1519 1520 1521 1522 1523 1524 1525 1526 1527 1528 1529 1529 1530 1531 1532 1533 1534 1535 1536 1536 1537
1495 1496 1497 1498 1499 1500 1501 1501 1502 1503 1504 1505 1506 1508 1509 1510 1511 1512 1513 1512 1513 1513 1514 1515 1516 1517 1518 1519 1520 1521 1522 1523 1524 1525 1526 1527 1527 1528 1529 1531 1532 1532 1533
1490 1491 1492 1493 1494 1495 1496 1497 1498 1498 1499 1500 1501 1502 1504 1505 1506 1507 1508 1509 1508 1509 1509 1510 1511 1512 1513 1514 1515 1516 1517 1518 1519 1520 1521 1522 1523 1524 1525 1526 1527 1528 1529
1486 1487 1488 1489 1490 1491 1491 1492 1492 1493 1494 1495 1496 1497 1498 1500 1501 1502 1503 1505 1506 1504 1504 1505 1506 1506 1508 1509 1510 1511 1511 1512 1513 1514 1515 1516 1517 1519 1520 1521 1522 1523 1524
1482 1482 1483 1484 1485 1485 1486 1487 1487 1488 1489 1490 1491 1492 1493 1494 1495 1497 1498 1499 1500 1500 1499 1499 1500 1501 1502 1503 1504 1505 1506 1507 1508 1508 1509 1511 1512 1513 1515 1515 1516 1517 1519
1477 1477 1478 1479 1480 1480 1481 1482 1482 1483 1484 1484 1485 1486 1487 1489 1490 1491 1492 1493 1494 1495 1494 1493 1494 1496 1497 1497 1498 1499 1500 1501 1501 1502 1503 1505 1506 1507 1508 1509 1510 1511 1513
1472 1472 1473 1474 1475 1475 1476 1476 1477 1477 1478 1478 1480 1481 1481 1483 1484 1485 1486 1487 1488 1489 1489 1488 1488 1489 1490 1491 1492 1493 1494 1495 1496 1496 1497 1498 1499 1501 1502 1503 1504 1505 1506
1467 1468 1468 1469 1469 1470 1470 1471 1471 1471 1472 1473 1474 1475 1476 1477 1477 1478 1479 1480 1482 1482 1483 1483 1482 1483 1484 1485 1486 1487 1488 1488 1489 1490 1491 1492 1493 1494 1496 1497 1498 1499 1500
1462 1462 1463 1464 1464 1465 1465 1465 1466 1466 1466 1467 1468 1469 1469 1470 1471 1472 1473 1474 1475 1476 1477 1477 1477 1478 1478 1479 1480 1480 1481 1482 1483 1484 1485 1486 1487 1488 1489 1490 1491 1493 1494
1458 1458 1458 1458 1459 1459 1459 1460 1460 1461 1461 1461 1462 1463 1463 1464 1465 1466 1467 1468 1469 1470 1470 1471 1471 1472 1472 1473 1473 1474 1475 1475 1476 1477 1478 1479 1480 1481 1482 1483 1485 1486 1487
1453 1453 1453 1453 1453 1453 1454 1454 1455 1455 1455 1455 1456 1456 1457 1458 1459 1460 1461 1462 1463 1463 1464 1464 1465 1465 1465 1466 1468 1468 1469 1469 1469 1471 1472 1472 1474 1474 1475 1476 1478 1479 1480
1448 1448 1448 1448 1447 1447 1448 1448 1449 1450 1449 1449 1450 1450 1451 1452 1452 1453 1454 1455 1456 1456 1458 1459 1458 1458 1459 1460 1461 1462 1462 1462 1462 1463 1465 1465 1467 1467 1468 1469 1471 1472 1474
1444 1443 1443 1442 1442 1441 1442 1443 1443 1444 1443 1443 1444 1444 1444 1445 1446 1447 1447 1447 1448 1449 1450 1451 1452 1452 1453 1454 1455 1455 1456 1456 1456 1457 1459 1459 1459 1460 1462 1462 1464 1465 1467
1439 1439 1439 1437 1436 1436 1437 1437 1438 1438 1437 1437 1437 1438 1438 1438 1439 1440 1441 1440 1441 1442 1443 1444 1445 1445 1446 1447 1448 1449 1449 1449 1448 1449 1451 1452 1453 1454 1455 1455 1457 1459 1460
1435 1435 1434 1433 1432 1431 1432 1432 1432 1432 1431 1431 1431 1431 1431 1432 1433 1433 1434 1434 1434 1434 1436 1436 1437 1438 1439 1439 1440 1441 1441 1442 1441 1442 1443 1446 1446 1448 1448 1449 1450 1452 1453